Location: Godiavel Galaoual
(15.2485°N, 12.6604°W)
Time: 12:23:28
(UTC+00:00)

LightSail 2 - Pass Details

Date: 09 June 2020
Orbit: 692 x 720 km, 24.0° (Epoch: 14 July)

Event Time Altitude Azimuth Distance (km) Brightness Sun altitude
Rises 20:27:40 0° 251° (WSW) 3,047 9.0 -15.3°
Reaches altitude 10° 20:30:05 10° 252° (WSW) 2,129 8.2 -15.8°
Maximum altitude 20:35:07 85° 340° (NNW) 692 5.1 -16.9°
Enters shadow 20:39:00 17° 69° (ENE) 1,705 6.8 -17.7°
